Location: ????????
(54.6123°N, 39.2099°E)
Time: 02:49:26
(UTC+00:00)

Cosmos 1933 - Pass Details

Date: 19 May 2025
Orbit: 516 x 524 km, 82.5° (Epoch: 14 June)

Event Time Altitude Azimuth Distance (km) Brightness Sun altitude
Rises 18:23:06 0° 195° (SSW) 2,645 6.5 -6.5°
Reaches altitude 10° 18:25:14 10° 198° (SSW) 1,760 5.6 -6.7°
Maximum altitude 18:29:05 72° 283° (WNW) 556 3.5 -7.0°
Drops below altitude 10° 18:32:58 10° 8° (N) 1,770 6.6 -7.4°
Sets 18:35:08 0° 11° (N) 2,661 7.5 -7.6°
